N9831H KHEF-KGSO

Flight info

Callsign N9831H
Flight time N/A
Altitude 4000
Route ARSNL5 GVE LYH
Aircraft C172/L-SBF/C

Departure

Time 2026-04-23 13:20
Airport Manassas Regional Airport/Harry P. Davis Field (KHEF)

Arrival

Time N/A
Airport Piedmont Triad International Airport (KGSO)
Time Latitude Longitude Altitude Speed Heading
2026-04-23 13:07 38.72565 -77.51372 182 ft 0 kts 58°
2026-04-23 13:14 38.72567 -77.51367 183 ft 4 kts 46°
2026-04-23 13:14 38.72607 -77.51380 183 ft 3 kts 329°
2026-04-23 13:14 38.72658 -77.51420 184 ft 9 kts 322°
2026-04-23 13:15 38.72650 -77.51486 184 ft 9 kts 240°
2026-04-23 13:15 38.72615 -77.51561 183 ft 10 kts 231°
2026-04-23 13:15 38.72544 -77.51554 182 ft 13 kts 144°
2026-04-23 13:15 38.72437 -77.51479 180 ft 20 kts 150°
2026-04-23 13:16 38.72305 -77.51385 177 ft 22 kts 148°
2026-04-23 13:16 38.72164 -77.51280 175 ft 23 kts 145°
2026-04-23 13:16 38.72017 -77.51176 172 ft 24 kts 151°
2026-04-23 13:16 38.71870 -77.51073 172 ft 21 kts 156°
2026-04-23 13:17 38.71779 -77.51004 171 ft 12 kts 150°
2026-04-23 13:17 38.71709 -77.50946 170 ft 7 kts 159°
2026-04-23 13:17 38.71596 -77.50874 171 ft 28 kts 153°
2026-04-23 13:17 38.71438 -77.50761 169 ft 22 kts 147°
2026-04-23 13:18 38.71336 -77.50724 168 ft 6 kts 219°
2026-04-23 13:18 38.71333 -77.50729 168 ft 0 kts 237°
2026-04-23 13:19 38.71324 -77.50746 168 ft 10 kts 239°
2026-04-23 13:19 38.71367 -77.50868 169 ft 24 kts 332°
2026-04-23 13:19 38.71690 -77.51101 185 ft 75 kts 329°
2026-04-23 13:20 38.72180 -77.51393 412 ft 79 kts 335°
2026-04-23 13:20 38.72680 -77.51678 668 ft 79 kts 329°
2026-04-23 13:20 38.73102 -77.52136 900 ft 81 kts 304°
2026-04-23 13:20 38.73312 -77.52792 1132 ft 81 kts 288°
2026-04-23 13:21 38.73444 -77.53497 1371 ft 81 kts 281°
2026-04-23 13:21 38.73552 -77.54188 1608 ft 78 kts 292°
2026-04-23 13:21 38.73741 -77.54802 1736 ft 70 kts 292°
2026-04-23 13:21 38.73911 -77.55394 1877 ft 71 kts 301°
2026-04-23 13:22 38.74222 -77.55930 1950 ft 81 kts 308°
2026-04-23 13:22 38.74567 -77.56475 2119 ft 79 kts 308°
2026-04-23 13:22 38.74900 -77.57046 2254 ft 80 kts 306°
2026-04-23 13:22 38.75220 -77.57642 2366 ft 83 kts 303°
2026-04-23 13:23 38.75468 -77.58272 2541 ft 80 kts 291°
2026-04-23 13:23 38.75637 -77.58972 2654 ft 82 kts 290°
2026-04-23 13:23 38.75789 -77.59670 2793 ft 82 kts 290°
2026-04-23 13:23 38.75965 -77.60376 2926 ft 81 kts 294°
2026-04-23 13:24 38.76150 -77.61050 3022 ft 85 kts 294°
2026-04-23 13:24 38.76344 -77.61736 3148 ft 79 kts 295°
2026-04-23 13:24 38.76561 -77.62427 3160 ft 85 kts 295°
2026-04-23 13:24 38.76793 -77.63142 3201 ft 86 kts 298°
2026-04-23 13:25 38.77068 -77.63847 3188 ft 91 kts 301°
2026-04-23 13:25 38.77358 -77.64543 3294 ft 85 kts 300°
2026-04-23 13:25 38.77582 -77.65276 3307 ft 92 kts 274°
2026-04-23 13:25 38.77218 -77.66007 3334 ft 107 kts 232°
2026-04-23 13:26 38.76716 -77.66738 3305 ft 110 kts 239°
2026-04-23 13:26 38.76276 -77.67512 3338 ft 104 kts 249°
2026-04-23 13:26 38.75895 -77.68347 3260 ft 112 kts 245°
2026-04-23 13:26 38.75448 -77.69195 3162 ft 118 kts 242°
2026-04-23 13:27 38.74950 -77.70048 3062 ft 121 kts 239°
2026-04-23 13:27 38.74440 -77.70900 2967 ft 122 kts 238°
2026-04-23 13:27 38.73906 -77.71719 2975 ft 116 kts 237°
2026-04-23 13:27 38.73394 -77.72497 2979 ft 113 kts 238°
2026-04-23 13:28 38.72889 -77.73264 2981 ft 112 kts 237°
2026-04-23 13:28 38.72393 -77.74019 2984 ft 110 kts 237°
2026-04-23 13:28 38.71897 -77.74773 2984 ft 109 kts 238°
2026-04-23 13:28 38.71412 -77.75513 2983 ft 107 kts 238°
2026-04-23 13:29 38.70943 -77.76247 2985 ft 107 kts 238°
2026-04-23 13:29 38.70471 -77.76976 2990 ft 106 kts 238°
2026-04-23 13:29 38.69991 -77.77711 2993 ft 106 kts 238°
2026-04-23 13:29 38.69515 -77.78440 2986 ft 106 kts 238°
2026-04-23 13:30 38.69043 -77.79157 2988 ft 106 kts 238°
2026-04-23 13:30 38.68567 -77.79884 2990 ft 106 kts 238°
2026-04-23 13:30 38.68091 -77.80608 2988 ft 106 kts 238°
2026-04-23 13:30 38.67617 -77.81326 2985 ft 106 kts 238°
2026-04-23 13:31 38.67140 -77.82054 2986 ft 106 kts 237°
2026-04-23 13:31 38.66664 -77.82776 2988 ft 106 kts 237°
2026-04-23 13:31 38.66188 -77.83498 2989 ft 106 kts 237°
2026-04-23 13:31 38.65711 -77.84222 2985 ft 106 kts 238°
2026-04-23 13:32 38.65229 -77.84954 2985 ft 106 kts 238°
2026-04-23 13:32 38.64750 -77.85681 2983 ft 107 kts 238°
2026-04-23 13:32 38.64249 -77.86389 2978 ft 110 kts 224°
2026-04-23 13:32 38.63550 -77.86841 2983 ft 114 kts 209°
2026-04-23 13:33 38.62805 -77.87205 2983 ft 115 kts 207°
2026-04-23 13:33 38.62049 -77.87560 2980 ft 115 kts 206°
2026-04-23 13:33 38.61297 -77.87908 2977 ft 115 kts 206°
2026-04-23 13:33 38.60520 -77.88264 3057 ft 118 kts 205°
2026-04-23 13:34 38.59756 -77.88612 3172 ft 116 kts 206°
2026-04-23 13:34 38.59007 -77.88956 3291 ft 113 kts 205°
2026-04-23 13:34 38.58272 -77.89291 3409 ft 111 kts 206°
2026-04-23 13:34 38.57550 -77.89622 3530 ft 110 kts 207°
2026-04-23 13:35 38.56833 -77.89952 3649 ft 109 kts 206°
2026-04-23 13:35 38.56114 -77.90282 3772 ft 108 kts 207°
2026-04-23 13:35 38.55415 -77.90602 3892 ft 107 kts 207°
2026-04-23 13:35 38.54713 -77.90926 4005 ft 108 kts 207°
2026-04-23 13:36 38.53972 -77.91272 3986 ft 117 kts 207°
2026-04-23 13:36 38.53194 -77.91634 3981 ft 119 kts 207°
2026-04-23 13:36 38.52419 -77.91994 3980 ft 120 kts 206°
2026-04-23 13:36 38.51631 -77.92358 3979 ft 120 kts 206°
2026-04-23 13:37 38.50843 -77.92721 3978 ft 120 kts 206°
2026-04-23 13:37 38.50054 -77.93083 3978 ft 120 kts 206°
2026-04-23 13:37 38.49278 -77.93440 3979 ft 120 kts 206°
2026-04-23 13:37 38.48489 -77.93801 3979 ft 120 kts 207°
2026-04-23 13:38 38.47701 -77.94164 3979 ft 120 kts 206°
2026-04-23 13:38 38.46918 -77.94524 3980 ft 120 kts 206°
2026-04-23 13:38 38.46136 -77.94883 3979 ft 120 kts 206°
2026-04-23 13:38 38.45346 -77.95245 3979 ft 120 kts 206°
2026-04-23 13:39 38.44560 -77.95606 3978 ft 120 kts 205°
2026-04-23 13:39 38.43766 -77.95970 3978 ft 120 kts 206°
2026-04-23 13:39 38.42977 -77.96333 3979 ft 120 kts 205°
2026-04-23 13:39 38.42189 -77.96692 3980 ft 121 kts 205°
2026-04-23 13:40 38.41401 -77.97054 3980 ft 120 kts 206°
2026-04-23 13:40 38.40606 -77.97420 3980 ft 120 kts 206°
2026-04-23 13:40 38.39820 -77.97782 3979 ft 120 kts 206°
2026-04-23 13:40 38.39035 -77.98146 3980 ft 120 kts 206°
2026-04-23 13:41 38.38248 -77.98511 3980 ft 120 kts 206°
2026-04-23 13:41 38.37461 -77.98876 3980 ft 120 kts 206°
2026-04-23 13:41 38.36674 -77.99240 3979 ft 119 kts 206°
2026-04-23 13:41 38.35889 -77.99601 3980 ft 120 kts 206°
2026-04-23 13:42 38.35110 -77.99960 3980 ft 120 kts 206°
2026-04-23 13:42 38.34324 -78.00319 3980 ft 120 kts 206°
2026-04-23 13:42 38.33537 -78.00680 3980 ft 120 kts 205°
2026-04-23 13:42 38.32752 -78.01039 3980 ft 120 kts 206°
2026-04-23 13:43 38.31957 -78.01402 3981 ft 120 kts 205°
2026-04-23 13:43 38.31175 -78.01759 3980 ft 120 kts 205°
2026-04-23 13:43 38.30388 -78.02118 3982 ft 120 kts 205°
2026-04-23 13:43 38.29595 -78.02480 3982 ft 120 kts 205°
2026-04-23 13:44 38.28810 -78.02837 3981 ft 120 kts 205°
2026-04-23 13:44 38.28019 -78.03198 3982 ft 120 kts 206°
2026-04-23 13:44 38.27242 -78.03552 3983 ft 119 kts 206°
2026-04-23 13:44 38.26453 -78.03909 3983 ft 119 kts 206°
2026-04-23 13:45 38.25665 -78.04269 3984 ft 120 kts 205°
2026-04-23 13:45 38.24882 -78.04625 3983 ft 120 kts 206°
2026-04-23 13:45 38.24099 -78.04981 3983 ft 120 kts 206°
2026-04-23 13:45 38.23304 -78.05344 3982 ft 120 kts 206°
2026-04-23 13:46 38.22519 -78.05701 3983 ft 120 kts 205°
2026-04-23 13:46 38.21725 -78.06062 3984 ft 120 kts 205°
2026-04-23 13:46 38.20941 -78.06419 3984 ft 120 kts 206°
2026-04-23 13:46 38.20154 -78.06776 3984 ft 120 kts 205°
2026-04-23 13:47 38.19378 -78.07130 3984 ft 120 kts 205°
2026-04-23 13:47 38.18584 -78.07490 3985 ft 120 kts 205°
2026-04-23 13:47 38.17802 -78.07845 3985 ft 120 kts 205°
2026-04-23 13:47 38.17017 -78.08202 3984 ft 120 kts 205°
2026-04-23 13:48 38.16224 -78.08561 3983 ft 120 kts 205°
2026-04-23 13:48 38.15442 -78.08915 3983 ft 120 kts 205°
2026-04-23 13:48 38.14655 -78.09272 3984 ft 120 kts 205°
2026-04-23 13:48 38.13868 -78.09630 3983 ft 120 kts 205°
2026-04-23 13:49 38.13080 -78.09987 3983 ft 120 kts 205°
2026-04-23 13:49 38.12294 -78.10342 3982 ft 119 kts 205°
2026-04-23 13:49 38.11511 -78.10699 3983 ft 119 kts 205°
2026-04-23 13:49 38.10729 -78.11054 3983 ft 119 kts 205°
2026-04-23 13:50 38.09938 -78.11413 3985 ft 119 kts 204°
2026-04-23 13:50 38.09156 -78.11767 3983 ft 120 kts 205°
2026-04-23 13:50 38.08367 -78.12124 3984 ft 120 kts 205°
2026-04-23 13:50 38.07584 -78.12479 3984 ft 120 kts 204°
2026-04-23 13:51 38.06791 -78.12837 3984 ft 120 kts 204°
2026-04-23 13:51 38.06012 -78.13190 3984 ft 120 kts 204°
2026-04-23 13:51 38.05217 -78.13548 3984 ft 120 kts 205°
2026-04-23 13:51 38.04427 -78.13906 3984 ft 120 kts 205°
2026-04-23 13:52 38.03634 -78.14264 3985 ft 120 kts 205°
2026-04-23 13:52 38.02854 -78.14617 3985 ft 120 kts 205°
2026-04-23 13:52 38.02069 -78.14972 3985 ft 119 kts 205°
2026-04-23 13:52 38.01337 -78.15443 3978 ft 114 kts 227°
2026-04-23 13:53 38.00787 -78.16153 3982 ft 112 kts 234°
2026-04-23 13:53 38.00266 -78.16892 3984 ft 112 kts 236°
2026-04-23 13:53 37.99756 -78.17626 3984 ft 112 kts 235°
2026-04-23 13:53 37.99240 -78.18369 3987 ft 112 kts 235°
2026-04-23 13:54 37.98723 -78.19115 3988 ft 112 kts 236°
2026-04-23 13:54 37.98209 -78.19855 3987 ft 112 kts 235°
2026-04-23 13:54 37.97691 -78.20602 3988 ft 113 kts 235°
2026-04-23 13:54 37.97175 -78.21348 3988 ft 112 kts 235°
2026-04-23 13:55 37.96658 -78.22094 3990 ft 112 kts 235°
2026-04-23 13:55 37.96140 -78.22843 3991 ft 112 kts 235°
2026-04-23 13:55 37.95625 -78.23584 3991 ft 112 kts 235°
2026-04-23 13:55 37.95105 -78.24335 3989 ft 112 kts 235°
2026-04-23 13:56 37.94587 -78.25082 3988 ft 112 kts 235°
2026-04-23 13:56 37.94073 -78.25824 3988 ft 112 kts 236°
2026-04-23 13:56 37.93553 -78.26574 3989 ft 112 kts 236°
2026-04-23 13:56 37.93040 -78.27313 3990 ft 112 kts 236°
2026-04-23 13:57 37.92524 -78.28057 3993 ft 111 kts 236°
2026-04-23 13:57 37.92012 -78.28794 3994 ft 111 kts 236°
2026-04-23 13:57 37.91500 -78.29534 3991 ft 112 kts 236°
2026-04-23 13:57 37.90990 -78.30269 3992 ft 112 kts 236°
2026-04-23 13:58 37.90477 -78.31009 3993 ft 112 kts 235°
2026-04-23 13:58 37.89964 -78.31747 3992 ft 112 kts 236°
2026-04-23 13:58 37.89444 -78.32497 3989 ft 112 kts 236°
2026-04-23 13:58 37.88933 -78.33232 3989 ft 112 kts 235°
2026-04-23 13:59 37.88419 -78.33972 3988 ft 112 kts 235°
2026-04-23 13:59 37.87900 -78.34718 3986 ft 112 kts 235°
2026-04-23 13:59 37.87381 -78.35465 3987 ft 112 kts 236°
2026-04-23 13:59 37.86863 -78.36209 3987 ft 112 kts 236°
2026-04-23 14:00 37.86524 -78.36696 3986 ft 112 kts 236°
2026-04-23 14:00 37.85836 -78.37686 3986 ft 112 kts 236°
2026-04-23 14:00 37.85325 -78.38419 3988 ft 111 kts 236°
2026-04-23 14:00 37.84815 -78.39153 3988 ft 111 kts 236°
2026-04-23 14:01 37.84301 -78.39892 3987 ft 111 kts 236°
2026-04-23 14:01 37.83790 -78.40627 3986 ft 111 kts 236°
2026-04-23 14:01 37.83285 -78.41353 3986 ft 111 kts 235°
2026-04-23 14:01 37.82771 -78.42090 3987 ft 111 kts 235°
2026-04-23 14:02 37.82258 -78.42825 3988 ft 111 kts 235°
2026-04-23 14:02 37.81741 -78.43565 3990 ft 111 kts 236°
2026-04-23 14:02 37.81232 -78.44296 3992 ft 111 kts 236°
2026-04-23 14:02 37.80716 -78.45036 3993 ft 111 kts 236°
2026-04-23 14:03 37.80206 -78.45770 3994 ft 111 kts 236°
2026-04-23 14:03 37.79723 -78.46516 3991 ft 109 kts 242°
2026-04-23 14:03 37.79290 -78.47317 3991 ft 110 kts 242°
2026-04-23 14:03 37.78847 -78.48097 3990 ft 110 kts 240°
2026-04-23 14:04 37.78378 -78.48867 3989 ft 110 kts 238°
2026-04-23 14:04 37.77864 -78.49608 3988 ft 111 kts 235°
2026-04-23 14:04 37.77351 -78.50333 3989 ft 111 kts 235°
2026-04-23 14:04 37.76834 -78.51065 3991 ft 111 kts 235°
2026-04-23 14:05 37.76322 -78.51792 3992 ft 111 kts 235°
2026-04-23 14:05 37.75813 -78.52516 3993 ft 111 kts 236°
2026-04-23 14:05 37.75293 -78.53256 3995 ft 112 kts 236°
2026-04-23 14:05 37.74775 -78.53994 3996 ft 112 kts 236°
2026-04-23 14:06 37.74264 -78.54725 3995 ft 112 kts 236°
2026-04-23 14:06 37.73743 -78.55469 3995 ft 112 kts 235°
2026-04-23 14:06 37.73228 -78.56205 3994 ft 112 kts 236°
2026-04-23 14:06 37.72714 -78.56939 3994 ft 112 kts 235°
2026-04-23 14:07 37.72193 -78.57684 3994 ft 112 kts 235°
2026-04-23 14:07 37.71161 -78.59157 4001 ft 112 kts 236°
2026-04-23 14:07 37.70644 -78.59892 4004 ft 112 kts 235°
2026-04-23 14:08 37.70129 -78.60628 4003 ft 112 kts 236°
2026-04-23 14:08 37.69617 -78.61357 4003 ft 112 kts 236°
2026-04-23 14:08 37.69101 -78.62096 4004 ft 112 kts 236°
2026-04-23 14:08 37.68581 -78.62837 4004 ft 112 kts 236°
2026-04-23 14:09 37.68068 -78.63570 4003 ft 112 kts 236°
2026-04-23 14:09 37.67552 -78.64306 4002 ft 112 kts 236°
2026-04-23 14:09 37.67030 -78.65050 4002 ft 112 kts 235°
2026-04-23 14:09 37.66511 -78.65790 4005 ft 112 kts 235°
2026-04-23 14:10 37.65989 -78.66534 4006 ft 112 kts 234°
2026-04-23 14:10 37.65476 -78.67265 4007 ft 112 kts 235°
2026-04-23 14:10 37.64952 -78.68011 4010 ft 112 kts 235°
2026-04-23 14:10 37.64434 -78.68749 4009 ft 112 kts 235°
2026-04-23 14:11 37.63918 -78.69485 4009 ft 113 kts 235°
2026-04-23 14:11 37.63394 -78.70229 4010 ft 113 kts 235°
2026-04-23 14:11 37.62873 -78.70971 4011 ft 113 kts 235°
2026-04-23 14:11 37.62352 -78.71711 4012 ft 113 kts 234°
2026-04-23 14:12 37.61830 -78.72455 4012 ft 113 kts 235°
2026-04-23 14:12 37.61311 -78.73192 4012 ft 113 kts 235°
2026-04-23 14:12 37.60785 -78.73941 4011 ft 113 kts 235°
2026-04-23 14:12 37.60262 -78.74683 4011 ft 113 kts 235°
2026-04-23 14:13 37.59744 -78.75420 4012 ft 112 kts 235°
2026-04-23 14:13 37.59224 -78.76159 4012 ft 112 kts 234°
2026-04-23 14:13 37.58706 -78.76895 4013 ft 112 kts 235°
2026-04-23 14:13 37.58183 -78.77639 4015 ft 112 kts 235°
2026-04-23 14:14 37.57668 -78.78369 4015 ft 112 kts 235°
2026-04-23 14:14 37.57149 -78.79104 4016 ft 112 kts 234°
2026-04-23 14:14 37.56627 -78.79847 4016 ft 112 kts 234°
2026-04-23 14:14 37.56109 -78.80582 4017 ft 112 kts 235°
2026-04-23 14:15 37.55587 -78.81323 4017 ft 112 kts 234°
2026-04-23 14:15 37.55071 -78.82054 4017 ft 112 kts 234°
2026-04-23 14:15 37.54548 -78.82794 4017 ft 112 kts 235°
2026-04-23 14:15 37.54029 -78.83530 4018 ft 112 kts 235°
2026-04-23 14:16 37.53509 -78.84267 4017 ft 112 kts 235°
2026-04-23 14:16 37.52990 -78.85005 4018 ft 112 kts 234°
2026-04-23 14:16 37.52468 -78.85743 4018 ft 112 kts 235°
2026-04-23 14:16 37.51947 -78.86479 4018 ft 112 kts 235°
2026-04-23 14:17 37.51427 -78.87215 4018 ft 112 kts 235°
2026-04-23 14:17 37.50907 -78.87952 4019 ft 112 kts 235°
2026-04-23 14:17 37.50396 -78.88676 4020 ft 112 kts 235°
2026-04-23 14:17 37.49874 -78.89414 4020 ft 112 kts 235°
2026-04-23 14:18 37.49353 -78.90153 4020 ft 112 kts 235°
2026-04-23 14:18 37.48838 -78.90881 4022 ft 112 kts 235°
2026-04-23 14:18 37.48315 -78.91620 4023 ft 112 kts 235°
2026-04-23 14:18 37.47800 -78.92347 4026 ft 112 kts 235°
2026-04-23 14:19 37.47277 -78.93088 4026 ft 112 kts 234°
2026-04-23 14:19 37.46753 -78.93827 4026 ft 112 kts 234°
2026-04-23 14:19 37.46232 -78.94564 4025 ft 113 kts 235°
2026-04-23 14:19 37.45714 -78.95295 4025 ft 113 kts 235°
2026-04-23 14:20 37.45190 -78.96036 4025 ft 112 kts 235°
2026-04-23 14:20 37.44669 -78.96773 4025 ft 112 kts 235°
2026-04-23 14:20 37.44144 -78.97511 4027 ft 112 kts 235°
2026-04-23 14:20 37.43624 -78.98245 4026 ft 112 kts 235°
2026-04-23 14:21 37.43105 -78.98977 4026 ft 112 kts 235°
2026-04-23 14:21 37.42590 -78.99704 4028 ft 112 kts 235°
2026-04-23 14:21 37.42069 -79.00439 4030 ft 112 kts 236°
2026-04-23 14:21 37.41545 -79.01176 4028 ft 112 kts 235°
2026-04-23 14:22 37.41026 -79.01910 4029 ft 112 kts 235°
2026-04-23 14:22 37.40505 -79.02644 4030 ft 113 kts 235°
2026-04-23 14:22 37.39977 -79.03390 4027 ft 113 kts 235°
2026-04-23 14:22 37.39453 -79.04126 4028 ft 113 kts 235°
2026-04-23 14:23 37.38927 -79.04868 4029 ft 113 kts 235°
2026-04-23 14:23 37.38402 -79.05608 4026 ft 113 kts 235°
2026-04-23 14:23 37.37875 -79.06350 4025 ft 113 kts 234°
2026-04-23 14:23 37.37355 -79.07081 4026 ft 113 kts 234°
2026-04-23 14:24 37.36829 -79.07820 4026 ft 113 kts 235°
2026-04-23 14:24 37.36306 -79.08555 4024 ft 113 kts 235°
2026-04-23 14:24 37.35779 -79.09296 4024 ft 113 kts 235°
2026-04-23 14:24 37.35254 -79.10035 4028 ft 113 kts 235°
2026-04-23 14:25 37.34733 -79.10768 4025 ft 113 kts 235°
2026-04-23 14:25 37.34210 -79.11502 4024 ft 112 kts 235°
2026-04-23 14:25 37.33691 -79.12231 4027 ft 112 kts 235°
2026-04-23 14:25 37.33171 -79.12961 4028 ft 112 kts 235°
2026-04-23 14:26 37.32647 -79.13699 4025 ft 113 kts 234°
2026-04-23 14:26 37.32121 -79.14437 4028 ft 113 kts 234°
2026-04-23 14:26 37.31598 -79.15170 4027 ft 113 kts 235°